Showing default

TIGRISAT, 40043

Orbit data source: Space-Track

TIGRISAT, 40043 is an Iraqi payload satellite in SSO that was launched on Thu, 19 Jun 2014 UTC via a DNEPR launch vehicle from the Orenburg, Russia (OREN). Payload-class satellites include a variety of spacecraft equipped with specific instruments for various scientific and technological missions. These include communications satellites like Starlink; space stations such as the ISS; scientific satellites like the Hubble; Earth observation satellites from companies like Planet Labs, Umbra, and HawkEye 360; GPS; miniature CubeSats for education and research; and military/defense satellites.

Loading next visibility...
Identifier
40043, 2014-033AK
Orbit
SSO
Country
Flag of IQIQ / IRAQ
Related business
Manufacturer
Roma La Sapienza
Mission
Operational Amateur Technology
Bus & Motor
CUBESAT 3U, Unknown motor
Mass
3.6 kg wet, 3.6 kg dry
Launch date (UTC)
2014-06-19 (12 years ago)
Launch vehicle
DNEPR
Launch site
Orenburg, Russia (OREN)
Object type
Payload
Rocket body
Debris
Shape & HBR
Box, 0.2 m
Radar Cross Section
0.035 m², Medium (>0.1 m² and < 1m²)

Expand to show TLE details & history
Last TLE update: 11 hours ago

TLE from 11 hours ago
0 TIGRISAT
1 40043U 14033AK  26265.19239807  .00001386  00000-0  16343-3 0  9990
2 40043  97.7969  53.0816 0050191 115.6791 244.9620 14.85454535660024
Epoch: 2026-09-22T04:37Z
TLE epoch observation values (Epoch: 2026-09-22T04:37:03.193Z)
Latitude
0.00001°
Longitude
-17.24311°
Altitude
630.188 km
Speed
7.535 km/s
True Right ascension
03h 32m 19s
True Declination
0° 00' 00"
Sunlit
Object was in full shadow at epoch
Visualization orbit readout
Latitude
Unknown
Longitude
Unknown
Altitude
Unknown
Speed
Unknown
Apparent Right ascension
Unknown
Apparent Declination
Unknown
Sunlit
N/A
Visualization observer readout
Local Sidereal Time
08:47:06
Azimuth
Unknown
Elevation
Unknown
Doppler factor
Unknown
Orbital elements
Apogee altitude
644.258 km
Perigee altitude
574.118 km
Semi-major axis
6,987.325 km
Eccentricity
0.00502
Inclination
97.7969°
RAAN
53.0816°
Arg. of periapsis
115.6791°
True anomaly
244.44229°
Mean anomaly
244.962°
Eccentric anomaly
244.70201°
Mean motion
3.71601 °/min
Orbital period
96.88 mins
BSTAR
0.00016343
Loading maneuver chart data...
Computing Atmospheric mass density...

Documentation

Showing up to 5 results
|